Time,TemperatureF,DewpointF,PressureIn,WindDirection,WindDirectionDegrees,WindSpeedMPH,WindSpeedGustMPH,Humidity,HourlyPrecipIn,Conditions,Clouds,dailyrainin,SoftwareType,DateUTC
2013-03-01 00:13:00,35.4,34.9,29.68,ENE,67,1.1,-999.0,98,-99.99,,,0.00,Acu-Link.com,2013-03-01 05:13:00,
2013-03-01 00:28:00,35.1,34.6,29.68,NW,315,1.1,-999.0,98,-99.99,,,0.00,Acu-Link.com,2013-03-01 05:28:00,
2013-03-01 00:43:00,34.7,34.2,29.69,SW,225,1.1,-999.0,98,-99.99,,,0.00,Acu-Link.com,2013-03-01 05:43:00,
2013-03-01 00:58:00,34.3,33.8,29.70,West,270,0.0,-999.0,98,-99.99,,,0.00,Acu-Link.com,2013-03-01 05:58:00,
2013-03-01 01:13:00,33.8,33.3,29.70,West,270,1.1,-999.0,98,-99.99,,,0.00,Acu-Link.com,2013-03-01 06:13:00,
2013-03-01 01:29:00,33.4,32.9,29.70,East,90,1.1,-999.0,98,-99.99,,,0.00,Acu-Link.com,2013-03-01 06:29:00,
2013-03-01 01:44:00,33.3,32.8,29.70,NW,315,1.1,-999.0,98,-99.99,,,0.00,Acu-Link.com,2013-03-01 06:44:00,
2013-03-01 01:59:00,32.9,32.4,29.70,NNW,337,0.0,-999.0,98,-99.99,,,0.00,Acu-Link.com,2013-03-01 06:59:00,
2013-03-01 02:14:00,32.5,32.0,29.69,SE,135,0.0,-999.0,98,-99.99,,,0.00,Acu-Link.com,2013-03-01 07:14:00,
2013-03-01 02:29:00,32.2,31.7,29.70,NNE,22,0.0,-999.0,98,-99.99,,,0.00,Acu-Link.com,2013-03-01 07:29:00,
2013-03-01 02:44:00,32.0,31.5,29.68,North,0,2.2,-999.0,98,-99.99,,,0.00,Acu-Link.com,2013-03-01 07:44:00,
2013-03-01 02:59:00,32.2,31.7,29.68,NNE,22,1.1,-999.0,98,-99.99,,,0.00,Acu-Link.com,2013-03-01 07:59:00,
2013-03-01 03:14:00,31.8,31.3,29.69,NE,45,1.1,-999.0,98,-99.99,,,0.00,Acu-Link.com,2013-03-01 08:14:00,
2013-03-01 03:29:00,31.6,31.1,29.68,North,0,1.1,-999.0,98,-99.99,,,0.00,Acu-Link.com,2013-03-01 08:29:00,
2013-03-01 03:45:00,32.0,31.5,29.68,NNE,22,1.1,-999.0,98,-99.99,,,0.00,Acu-Link.com,2013-03-01 08:45:00,
2013-03-01 04:00:00,31.8,31.3,29.68,SSW,202,0.0,-999.0,98,-99.99,,,0.00,Acu-Link.com,2013-03-01 09:00:00,
2013-03-01 04:19:00,31.8,31.3,29.69,NNW,337,1.1,-999.0,98,-99.99,,,0.00,Acu-Link.com,2013-03-01 09:19:00,
2013-03-01 04:34:00,31.5,31.0,29.68,NNW,337,0.0,-999.0,98,-99.99,,,0.00,Acu-Link.com,2013-03-01 09:34:00,
2013-03-01 04:50:00,31.6,31.1,29.69,ENE,67,0.0,-999.0,98,-99.99,,,0.00,Acu-Link.com,2013-03-01 09:50:00,
2013-03-01 05:05:00,31.3,30.8,29.69,SW,225,1.7,-999.0,98,-99.99,,,0.00,Acu-Link.com,2013-03-01 10:05:00,
2013-03-01 05:20:00,30.9,30.4,29.69,NNW,337,0.0,-999.0,98,-99.99,,,0.00,Acu-Link.com,2013-03-01 10:20:00,
2013-03-01 05:35:00,30.9,30.4,29.70,WSW,247,1.1,-999.0,98,-99.99,,,0.00,Acu-Link.com,2013-03-01 10:35:00,
2013-03-01 05:50:00,30.4,29.9,29.70,NNE,22,0.0,-999.0,98,-99.99,,,0.00,Acu-Link.com,2013-03-01 10:50:00,
2013-03-01 06:05:00,30.0,29.5,29.69,North,0,0.0,-999.0,98,-99.99,,,0.00,Acu-Link.com,2013-03-01 11:05:00,
2013-03-01 06:20:00,30.0,29.5,29.70,West,270,1.1,-999.0,98,-99.99,,,0.00,Acu-Link.com,2013-03-01 11:20:00,
2013-03-01 06:35:00,29.8,29.3,29.71,North,0,0.0,-999.0,98,-99.99,,,0.00,Acu-Link.com,2013-03-01 11:35:00,
2013-03-01 06:51:00,29.7,29.2,29.71,South,180,0.0,-999.0,98,-99.99,,,0.00,Acu-Link.com,2013-03-01 11:51:00,
2013-03-01 07:06:00,29.3,28.8,29.71,ESE,112,0.0,-999.0,98,-99.99,,,0.00,Acu-Link.com,2013-03-01 12:06:00,
2013-03-01 07:21:00,29.8,29.3,29.71,NNE,22,0.0,-999.0,98,-99.99,,,0.00,Acu-Link.com,2013-03-01 12:21:00,
2013-03-01 07:36:00,31.3,30.8,29.71,West,270,1.7,-999.0,98,-99.99,,,0.00,Acu-Link.com,2013-03-01 12:36:00,
2013-03-01 07:51:00,33.6,33.1,29.70,WNW,292,0.0,-999.0,98,-99.99,,,0.00,Acu-Link.com,2013-03-01 12:51:00,
2013-03-01 08:06:00,36.1,35.6,29.71,South,180,2.7,-999.0,98,-99.99,,,0.00,Acu-Link.com,2013-03-01 13:06:00,
2013-03-01 08:21:00,37.9,37.4,29.71,WNW,292,2.2,-999.0,98,-99.99,,,0.00,Acu-Link.com,2013-03-01 13:21:00,
2013-03-01 08:36:00,39.4,38.9,29.71,NE,45,2.2,-999.0,98,-99.99,,,0.00,Acu-Link.com,2013-03-01 13:36:00,
2013-03-01 08:51:00,41.0,38.9,29.71,NNE,22,2.2,-999.0,92,-99.99,,,0.00,Acu-Link.com,2013-03-01 13:51:00,
2013-03-01 09:06:00,42.4,37.6,29.71,NNE,22,3.2,-999.0,83,-99.99,,,0.00,Acu-Link.com,2013-03-01 14:06:00,
2013-03-01 09:22:00,43.5,37.1,29.71,SW,225,2.2,-999.0,78,-99.99,,,0.00,Acu-Link.com,2013-03-01 14:22:00,
2013-03-01 09:37:00,45.3,35.7,29.71,NW,315,3.7,-999.0,69,-99.99,,,0.00,Acu-Link.com,2013-03-01 14:37:00,
2013-03-01 09:52:00,46.4,34.5,29.71,ENE,67,2.7,-999.0,63,-99.99,,,0.00,Acu-Link.com,2013-03-01 14:52:00,
2013-03-01 10:07:00,47.8,35.0,29.70,SW,225,2.2,-999.0,61,-99.99,,,0.00,Acu-Link.com,2013-03-01 15:07:00,
2013-03-01 10:22:00,48.4,34.3,29.71,North,0,3.7,-999.0,58,-99.99,,,0.00,Acu-Link.com,2013-03-01 15:22:00,
2013-03-01 10:37:00,48.9,35.2,29.70,NNE,22,2.7,-999.0,59,-99.99,,,0.00,Acu-Link.com,2013-03-01 15:37:00,
2013-03-01 10:52:00,49.3,34.3,29.70,WNW,292,3.2,-999.0,56,-99.99,,,0.00,Acu-Link.com,2013-03-01 15:52:00,
2013-03-01 11:07:00,49.1,33.6,29.71,NNW,337,2.7,-999.0,55,-99.99,,,0.00,Acu-Link.com,2013-03-01 16:07:00,
2013-03-01 11:22:00,48.4,33.4,29.71,West,270,3.2,-999.0,56,-99.99,,,0.00,Acu-Link.com,2013-03-01 16:22:00,
2013-03-01 11:38:00,50.4,34.4,29.70,NNW,337,2.2,-999.0,54,-99.99,,,0.00,Acu-Link.com,2013-03-01 16:38:00,
2013-03-01 11:53:00,49.8,36.1,29.70,NW,315,1.7,-999.0,59,-99.99,,,0.00,Acu-Link.com,2013-03-01 16:53:00,
2013-03-01 12:08:00,49.3,34.7,29.70,NNE,22,1.7,-999.0,57,-99.99,,,0.00,Acu-Link.com,2013-03-01 17:08:00,
2013-03-01 12:23:00,48.7,33.7,29.69,ESE,112,3.2,-999.0,56,-99.99,,,0.00,Acu-Link.com,2013-03-01 17:23:00,
2013-03-01 12:38:00,48.7,34.6,29.69,SE,135,5.8,-999.0,58,-99.99,,,0.00,Acu-Link.com,2013-03-01 17:38:00,
2013-03-01 12:53:00,48.2,33.7,29.68,NE,45,1.1,-999.0,57,-99.99,,,0.00,Acu-Link.com,2013-03-01 17:53:00,
2013-03-01 13:08:00,48.7,34.2,29.68,NNW,337,2.2,-999.0,57,-99.99,,,0.00,Acu-Link.com,2013-03-01 18:08:00,
2013-03-01 13:23:00,48.7,33.7,29.68,NE,45,2.7,-999.0,56,-99.99,,,0.00,Acu-Link.com,2013-03-01 18:23:00,
2013-03-01 13:38:00,47.7,33.2,29.69,West,270,4.7,-999.0,57,-99.99,,,0.00,Acu-Link.com,2013-03-01 18:38:00,
2013-03-01 13:54:00,47.7,34.1,29.68,North,0,2.7,-999.0,59,-99.99,,,0.00,Acu-Link.com,2013-03-01 18:54:00,
2013-03-01 14:09:00,47.5,33.5,29.68,NW,315,3.2,-999.0,58,-99.99,,,0.00,Acu-Link.com,2013-03-01 19:09:00,
2013-03-01 14:24:00,47.7,34.1,29.67,WNW,292,2.7,-999.0,59,-99.99,,,0.00,Acu-Link.com,2013-03-01 19:24:00,
2013-03-01 14:39:00,47.7,33.7,29.67,SSE,157,3.7,-999.0,58,-99.99,,,0.00,Acu-Link.com,2013-03-01 19:39:00,
2013-03-01 14:54:00,48.0,34.4,29.67,ESE,112,2.7,-999.0,59,-99.99,,,0.00,Acu-Link.com,2013-03-01 19:54:00,
2013-03-01 15:09:00,47.5,33.9,29.67,ESE,112,2.7,-999.0,59,-99.99,,,0.00,Acu-Link.com,2013-03-01 20:09:00,
2013-03-01 15:24:00,47.3,34.1,29.67,North,0,1.7,-999.0,60,-99.99,,,0.00,Acu-Link.com,2013-03-01 20:24:00,
2013-03-01 15:39:00,46.6,33.5,29.67,West,270,2.7,-999.0,60,-99.99,,,0.00,Acu-Link.com,2013-03-01 20:39:00,
2013-03-01 15:54:00,46.6,33.9,29.68,NNW,337,3.2,-999.0,61,-99.99,,,0.00,Acu-Link.com,2013-03-01 20:54:00,
2013-03-01 16:10:00,46.2,33.9,29.68,NW,315,0.0,-999.0,62,-99.99,,,0.00,Acu-Link.com,2013-03-01 21:10:00,
2013-03-01 16:25:00,45.7,33.8,29.68,North,0,3.2,-999.0,63,-99.99,,,0.00,Acu-Link.com,2013-03-01 21:25:00,
2013-03-01 16:40:00,45.7,34.2,29.68,NNE,22,4.2,-999.0,64,-99.99,,,0.00,Acu-Link.com,2013-03-01 21:40:00,
2013-03-01 16:55:00,45.5,34.4,29.68,WNW,292,1.7,-999.0,65,-99.99,,,0.00,Acu-Link.com,2013-03-01 21:55:00,
2013-03-01 17:10:00,45.0,34.3,29.69,NNW,337,1.7,-999.0,66,-99.99,,,0.00,Acu-Link.com,2013-03-01 22:10:00,
2013-03-01 17:25:00,44.6,34.3,29.69,ESE,112,2.2,-999.0,67,-99.99,,,0.00,Acu-Link.com,2013-03-01 22:25:00,
2013-03-01 17:40:00,44.2,34.7,29.70,NNW,337,1.1,-999.0,69,-99.99,,,0.00,Acu-Link.com,2013-03-01 22:40:00,
2013-03-01 17:56:00,44.1,35.0,29.70,NE,45,0.0,-999.0,70,-99.99,,,0.00,Acu-Link.com,2013-03-01 22:56:00,
2013-03-01 18:11:00,43.7,34.9,29.70,ESE,112,1.7,-999.0,71,-99.99,,,0.00,Acu-Link.com,2013-03-01 23:11:00,
2013-03-01 18:26:00,43.5,35.4,29.71,NNW,337,1.1,-999.0,73,-99.99,,,0.00,Acu-Link.com,2013-03-01 23:26:00,
2013-03-01 18:41:00,43.2,35.8,29.71,WSW,247,0.0,-999.0,75,-99.99,,,0.00,Acu-Link.com,2013-03-01 23:41:00,
2013-03-01 18:56:00,43.0,35.6,29.71,WNW,292,1.1,-999.0,75,-99.99,,,0.00,Acu-Link.com,2013-03-01 23:56:00,
2013-03-01 19:11:00,42.8,36.4,29.72,NE,45,0.0,-999.0,78,-99.99,,,0.00,Acu-Link.com,2013-03-02 00:11:00,
2013-03-01 19:26:00,42.4,36.0,29.72,South,180,0.0,-999.0,78,-99.99,,,0.00,Acu-Link.com,2013-03-02 00:26:00,
2013-03-01 19:41:00,42.4,35.7,29.73,East,90,0.0,-999.0,77,-99.99,,,0.00,Acu-Link.com,2013-03-02 00:41:00,
2013-03-01 19:56:00,42.4,36.4,29.72,NE,45,1.1,-999.0,79,-99.99,,,0.00,Acu-Link.com,2013-03-02 00:56:00,
2013-03-01 20:12:00,42.3,36.6,29.72,NW,315,0.0,-999.0,80,-99.99,,,0.00,Acu-Link.com,2013-03-02 01:12:00,
2013-03-01 20:27:00,41.9,37.4,29.73,WSW,247,0.0,-999.0,84,-99.99,,,0.00,Acu-Link.com,2013-03-02 01:27:00,
2013-03-01 20:42:00,41.7,36.6,29.73,South,180,1.1,-999.0,82,-99.99,,,0.00,Acu-Link.com,2013-03-02 01:42:00,
2013-03-01 20:57:00,41.7,36.6,29.73,West,270,1.1,-999.0,82,-99.99,,,0.00,Acu-Link.com,2013-03-02 01:57:00,
2013-03-01 21:12:00,41.9,36.8,29.74,NW,315,1.7,-999.0,82,-99.99,,,0.00,Acu-Link.com,2013-03-02 02:12:00,
2013-03-01 21:27:00,41.9,36.8,29.74,NNW,337,1.7,-999.0,82,-99.99,,,0.00,Acu-Link.com,2013-03-02 02:27:00,
2013-03-01 21:42:00,41.7,36.6,29.73,South,180,1.7,-999.0,82,-99.99,,,0.00,Acu-Link.com,2013-03-02 02:42:00,
2013-03-01 21:57:00,41.7,35.4,29.74,NNW,337,1.1,-999.0,78,-99.99,,,0.00,Acu-Link.com,2013-03-02 02:57:00,
2013-03-01 22:12:00,41.5,35.2,29.74,NNW,337,0.0,-999.0,78,-99.99,,,0.00,Acu-Link.com,2013-03-02 03:12:00,
2013-03-01 22:28:00,41.2,34.9,29.74,ESE,112,1.7,-999.0,78,-99.99,,,0.00,Acu-Link.com,2013-03-02 03:28:00,
2013-03-01 22:43:00,41.0,34.0,29.73,South,180,0.0,-999.0,76,-99.99,,,0.00,Acu-Link.com,2013-03-02 03:43:00,
2013-03-01 22:58:00,40.5,34.2,29.73,NE,45,1.7,-999.0,78,-99.99,,,0.00,Acu-Link.com,2013-03-02 03:58:00,
2013-03-01 23:13:00,39.6,33.9,29.73,WSW,247,1.1,-999.0,80,-99.99,,,0.00,Acu-Link.com,2013-03-02 04:13:00,
2013-03-01 23:28:00,38.5,34.1,29.74,West,270,1.7,-999.0,84,-99.99,,,0.00,Acu-Link.com,2013-03-02 04:28:00,
2013-03-01 23:43:00,37.8,33.4,29.73,WNW,292,0.0,-999.0,84,-99.99,,,0.00,Acu-Link.com,2013-03-02 04:43:00,
2013-03-01 23:58:00,36.1,32.0,29.73,SSW,202,0.0,-999.0,85,-99.99,,,0.00,Acu-Link.com,2013-03-02 04:58:00,